EW2235 Weather Reports


Display with metric or nautical units.
time (UTC)temp
F
wind
direction
speed
MPH
gust
MPH
rain 1hr
in
rain 24hr
in
rain mn
in
humidity
%
barometer
mb
20260904215818 60 97 0.0 6.0 0.01 0.17 0.10 79 1014.0
20260904215323 60 101 0.0 6.0 0.01 0.17 0.10 78 1014.0
20260904214827 60 77 2.0 6.0 0.01 0.17 0.10 78 1014.1
20260904214325 61 146 1.0 8.0 0.01 0.17 0.10 80 1014.0
20260904213816 61 91 1.0 8.0 0.01 0.17 0.10 81 1013.9
20260904213314 61 101 1.0 4.0 0.01 0.17 0.10 84 1013.8
20260904212822 61 139 1.0 4.0 0.01 0.17 0.10 86 1013.8
20260904212321 60 143 0.0 4.0 0.01 0.17 0.10 84 1013.7
20260904211831 61 136 1.0 7.0 0.01 0.17 0.10 82 1013.8
20260904211330 62 122 0.0 7.0 0.00 0.16 0.09 80 1013.8
20260904210832 63 212 0.0 1.0 0.00 0.16 0.09 78 1013.7
20260904210312 63 117 0.0 1.0 0.00 0.17 0.09 72 1013.5
20260904205821 63 222 0.0 3.0 0.00 0.17 0.09 72 1013.5
20260904205327 63 156 0.0 5.0 0.00 0.17 0.09 70 1013.5
20260904204829 64 248 1.0 7.0 0.00 0.17 0.09 69 1013.4
20260904204315 65 207 0.0 0.0 0.00 0.17 0.09 67 1013.3
20260904203825 65 224 0.0 2.0 0.00 0.17 0.09 65 1013.3
20260904203324 65 137 0.0 3.0 0.00 0.17 0.09 64 1013.3
20260904202814 66 101 0.0 7.0 0.00 0.17 0.09 62 1013.2
20260904202319 66 196 0.0 2.0 0.00 0.17 0.09 62 1013.2
20260904201821 66 198 0.0 7.0 0.00 0.17 0.09 63 1013.2
20260904201347 65 245 0.0 7.0 0.00 0.17 0.09 65 1013.2
20260904200835 64 143 0.0 2.0 0.00 0.17 0.09 70 1013.2
20260904200334 63 78 0.0 4.0 0.00 0.17 0.09 71 1013.2
20260904195844 63 136 0.0 4.0 0.00 0.17 0.09 71 1013.2
20260904195350 63 124 0.0 3.0 0.00 0.17 0.09 71 1013.3
20260904194857 63 113 0.0 0.0 0.00 0.17 0.09 73 1013.4
20260904194336 63 147 0.0 0.0 0.00 0.17 0.09 78 1013.5
20260904193845 62 140 0.0 0.0 0.00 0.17 0.09 77 1013.5
20260904193348 62 1 0.0 0.0 0.00 0.17 0.09 75 1013.5
20260904192813 62 69 0.0 0.0 0.00 0.17 0.09 75 1013.5
20260904192312 62 69 0.0 0.0 0.00 0.17 0.09 76 1013.5
20260904191822 62 69 0.0 0.0 0.00 0.17 0.09 78 1013.5
20260904191405 61 135 0.0 0.0 0.00 0.17 0.09 76 1013.5
20260904190821 61 115 0.0 1.0 0.01 0.17 0.09 76 1013.6
20260904190321 61 212 0.0 1.0 0.01 0.18 0.09 78 1013.6
20260904185827 61 82 0.0 0.0 0.01 0.18 0.09 79 1013.6
20260904185327 61 108 0.0 0.0 0.01 0.18 0.09 79 1013.5
20260904184836 61 70 0.0 0.0 0.01 0.18 0.09 81 1013.5
20260904184316 60 144 0.0 1.0 0.01 0.18 0.09 81 1013.5
20260904183819 60 144 0.0 1.0 0.01 0.18 0.09 78 1013.4
20260904183325 60 129 0.0 0.0 0.01 0.18 0.09 83 1013.4
20260904182827 60 100 0.0 0.0 0.01 0.18 0.09 85 1013.4
20260904182326 60 130 0.0 0.0 0.01 0.18 0.09 85 1013.4
20260904181312 60 136 0.0 2.0 0.00 0.17 0.08 86 1013.3
20260904180814 60 84 0.0 0.0 0.00 0.17 0.08 85 1013.2
20260904180319 60 323 0.0 0.0 0.00 0.17 0.08 87 1013.2
20260904175817 60 146 0.0 0.0 0.00 0.17 0.08 86 1013.2
20260904175322 59 64 0.0 2.0 0.00 0.17 0.08 88 1013.2
20260904174831 59 117 0.0 2.0 0.00 0.17 0.08 88 1013.2
20260904174336 59 61 0.0 3.0 0.00 0.17 0.08 90 1013.2
20260904173817 58 94 0.0 3.0 0.00 0.17 0.08 89 1013.2
20260904173321 58 85 0.0 2.0 0.00 0.17 0.08 91 1013.2
20260904172830 58 100 0.0 2.0 0.00 0.17 0.08 91 1013.2
20260904172336 58 134 0.0 3.0 0.00 0.17 0.08 92 1013.1
20260904171818 57 119 0.0 3.0 0.00 0.17 0.08 93 1013.1
20260904171323 57 142 0.0 2.0 0.00 0.17 0.08 93 1013.1
20260904170832 56 233 0.0 2.0 0.00 0.17 0.08 93 1013.0
20260904170330 56 141 0.0 3.0 0.00 0.18 0.08 93 1013.1
20260904165819 56 112 0.0 3.0 0.00 0.18 0.08 93 1013.0
20260904165317 56 48 0.0 3.0 0.00 0.18 0.08 93 1013.0
20260904164814 56 48 0.0 3.0 0.00 0.18 0.08 93 1012.9
20260904164320 55 102 0.0 3.0 0.00 0.18 0.08 93 1012.9
20260904163830 55 141 1.0 3.0 0.00 0.18 0.08 93 1012.8
20260904163344 55 134 0.0 1.0 0.00 0.18 0.08 93 1012.8
20260904162853 55 141 0.0 3.0 0.00 0.18 0.08 93 1012.8
20260904162333 55 136 0.0 3.0 0.00 0.18 0.08 93 1012.8
20260904161842 55 133 0.0 3.0 0.00 0.18 0.08 93 1012.7
20260904161349 54 133 0.0 3.0 0.00 0.18 0.08 93 1012.7
20260904160855 54 73 0.0 1.0 0.00 0.18 0.08 93 1012.7
20260904160336 54 110 0.0 1.0 0.00 0.23 0.08 93 1012.7
20260904155843 54 112 0.0 0.0 0.00 0.23 0.08 93 1012.8
20260904155321 54 120 0.0 1.0 0.00 0.23 0.08 93 1012.7
20260904154831 53 140 0.0 1.0 0.00 0.23 0.08 93 1012.7
20260904154330 53 109 0.0 0.0 0.00 0.23 0.08 93 1012.8
20260904153813 53 117 0.0 0.0 0.00 0.23 0.08 93 1012.8
20260904153319 53 139 0.0 0.0 0.00 0.23 0.08 93 1012.8
20260904152821 53 116 0.0 0.0 0.00 0.23 0.08 93 1012.7
20260904152320 53 116 0.0 1.0 0.00 0.23 0.08 93 1012.6
20260904151830 53 132 0.0 1.0 0.00 0.23 0.08 93 1012.6
20260904151329 53 131 0.0 1.0 0.00 0.23 0.08 93 1012.6
20260904150839 53 124 0.0 1.0 0.00 0.23 0.08 93 1012.6
20260904150319 52 136 0.0 1.0 0.00 0.27 0.08 93 1012.5
20260904145817 52 117 0.0 3.0 0.00 0.27 0.08 93 1012.4
20260904145323 52 121 0.0 2.0 0.00 0.27 0.08 93 1012.3
20260904144826 52 134 0.0 2.0 0.00 0.27 0.08 93 1012.3
20260904144325 52 138 0.0 3.0 0.00 0.27 0.08 93 1012.2
20260904143814 52 156 0.0 3.0 0.00 0.27 0.08 93 1012.2
20260904143314 52 107 0.0 3.0 0.00 0.27 0.08 93 1012.1
20260904142824 52 137 0.0 0.0 0.00 0.27 0.08 93 1012.1
20260904142329 52 129 0.0 2.0 0.00 0.27 0.08 93 1012.0
20260904141831 52 122 0.0 2.0 0.00 0.27 0.08 93 1012.0
20260904141337 52 121 0.0 1.0 0.00 0.27 0.08 93 1011.9
20260904140820 52 110 0.0 1.0 0.00 0.27 0.08 93 1011.9
20260904140319 52 113 0.0 1.0 0.00 0.34 0.08 93 1011.9
20260904135908 52 118 0.0 1.0 0.00 0.34 0.08 93 1011.8
20260904135329 52 97 0.0 1.0 0.00 0.34 0.08 93 1011.8
20260904134831 52 109 0.0 2.0 0.00 0.34 0.08 93 1011.7
20260904134331 52 116 1.0 2.0 0.00 0.34 0.08 93 1011.7
20260904133820 52 129 0.0 1.0 0.00 0.34 0.08 93 1011.7
20260904133320 52 134 0.0 2.0 0.00 0.34 0.08 93 1011.6
20260904132822 52 124 0.0 2.0 0.00 0.34 0.08 93 1011.6
20260904132328 52 122 0.0 2.0 0.00 0.34 0.08 93 1011.5
20260904131831 53 122 0.0 2.0 0.00 0.34 0.08 93 1011.4
20260904131337 53 103 0.0 2.0 0.00 0.34 0.08 93 1011.5
20260904130820 53 122 0.0 1.0 0.00 0.34 0.08 93 1011.5
20260904130319 53 124 0.0 1.0 0.00 0.37 0.08 93 1011.4
20260904125817 53 110 0.0 1.0 0.00 0.37 0.08 93 1011.3
20260904125324 53 110 0.0 1.0 0.01 0.37 0.08 93 1011.3
20260904124826 53 128 0.0 1.0 0.01 0.37 0.08 93 1011.3
20260904124333 52 115 0.0 1.0 0.02 0.37 0.08 93 1011.2
20260904123822 52 116 0.0 0.0 0.02 0.37 0.08 93 1011.2
20260904123321 52 116 0.0 0.0 0.03 0.37 0.08 93 1011.2
20260904122815 52 116 0.0 0.0 0.04 0.37 0.08 93 1011.2
20260904122321 52 116 0.0 0.0 0.04 0.37 0.08 93 1011.2
20260904121823 52 116 0.0 0.0 0.05 0.37 0.08 93 1011.3
20260904121330 52 116 0.0 0.0 0.05 0.37 0.08 93 1011.2
20260904120833 52 116 0.0 0.0 0.05 0.37 0.08 93 1011.1
20260904120311 52 116 0.0 0.0 0.05 0.37 0.08 93 1011.1
20260904115822 52 116 0.0 0.0 0.05 0.36 0.07 93 1011.0
20260904115320 52 143 0.0 0.0 0.05 0.36 0.07 93 1011.0
20260904114822 52 143 0.0 0.0 0.06 0.36 0.07 93 1011.0
20260904114329 52 143 0.0 0.0 0.05 0.35 0.06 93 1011.1
20260904113832 53 122 0.0 1.0 0.05 0.35 0.06 93 1011.0
20260904113338 53 118 0.0 1.0 0.04 0.34 0.05 93 1011.0
20260904112819 53 114 0.0 1.0 0.03 0.33 0.04 93 1010.9
20260904112318 53 114 0.0 1.0 0.04 0.33 0.04 93 1010.9
20260904111820 53 90 0.0 0.0 0.03 0.32 0.03 93 1010.8
20260904111326 53 122 0.0 0.0 0.03 0.32 0.03 93 1010.7
20260904110816 53 122 0.0 0.0 0.03 0.32 0.03 93 1010.8
20260904110315 53 122 0.0 0.0 0.03 0.32 0.03 93 1010.7
20260904105824 53 122 0.0 0.0 0.02 0.31 0.02 93 1010.7
20260904105323 54 122 0.0 0.0 0.02 0.31 0.02 93 1010.8
20260904104833 54 122 0.0 0.0 0.01 0.30 0.01 93 1010.8
20260904104312 54 122 0.0 0.0 0.01 0.30 0.01 93 1010.8
20260904103815 54 122 0.0 0.0 0.01 0.30 0.01 93 1010.8
20260904102830 54 122 0.0 0.0 0.01 0.30 0.01 93 1010.7
20260904102330 54 134 0.0 0.0 0.00 0.29 0.00 93 1010.7
20260904101812 54 134 0.0 0.0 0.00 0.29 0.00 93 1010.7
20260904101319 54 134 0.0 0.0 0.00 0.29 0.00 93 1010.6
20260904100822 53 134 0.0 0.0 0.00 0.29 0.00 93 1010.6
20260904100328 53 134 0.0 0.0 0.00 0.29 0.00 93 1010.6
20260904095830 53 134 0.0 0.0 0.00 0.29 0.00 93 1010.6
20260904095329 53 134 0.0 0.0 0.00 0.29 0.00 93 1010.5
20260904094839 53 134 0.0 0.0 0.00 0.29 0.00 93 1010.5
20260904094318 53 134 0.0 0.0 0.00 0.29 0.00 93 1010.5
20260904093819 53 134 0.0 0.0 0.00 0.29 0.00 93 1010.4
20260904093326 53 134 0.0 0.0 0.00 0.29 0.00 93 1010.5
20260904092829 53 134 0.0 0.0 0.00 0.29 0.00 93 1010.4
20260904092334 53 134 0.0 0.0 0.00 0.29 0.00 93 1010.4
20260904091816 53 134 0.0 0.0 0.00 0.29 0.00 93 1010.3
20260904091315 53 134 0.0 0.0 0.00 0.29 0.00 93 1010.3
20260904090817 53 134 0.0 0.0 0.00 0.29 0.00 93 1010.3
20260904090323 53 134 0.0 0.0 0.00 0.33 0.00 93 1010.4
20260904085813 53 134 0.0 0.0 0.00 0.33 0.00 93 1010.4
20260904085312 54 134 0.0 2.0 0.00 0.33 0.00 93 1010.4
20260904084822 54 136 0.0 2.0 0.00 0.33 0.00 93 1010.4
20260904084321 54 138 0.0 1.0 0.00 0.33 0.00 93 1010.4
20260904083831 54 124 0.0 0.0 0.00 0.33 0.00 93 1010.3
20260904083318 53 124 0.0 0.0 0.00 0.33 0.00 93 1010.4
20260904082819 53 124 0.0 0.0 0.00 0.33 0.00 93 1010.3
20260904082319 54 120 0.0 0.0 0.00 0.33 0.00 93 1010.3
20260904081828 54 120 0.0 0.0 0.00 0.33 0.00 93 1010.3
20260904081327 54 138 0.0 0.0 0.00 0.33 0.00 93 1010.4
20260904080837 54 127 0.0 0.0 0.00 0.33 0.00 93 1010.4
20260904080315 54 174 0.0 1.0 0.00 0.34 0.00 93 1010.4
20260904075818 54 121 0.0 1.0 0.00 0.34 0.00 93 1010.5
20260904075323 54 137 0.0 1.0 0.00 0.34 0.00 93 1010.5
20260904074826 54 141 0.0 1.0 0.00 0.34 0.00 93 1010.5
20260904074325 54 107 0.0 0.0 0.00 0.34 0.00 93 1010.5
20260904073834 54 107 0.0 0.0 0.00 0.34 0.00 93 1010.4
20260904073314 54 107 0.0 0.0 0.00 0.34 0.00 93 1010.4
20260904072816 54 107 0.0 0.0 0.00 0.34 0.00 93 1010.4
20260904072322 54 107 0.0 0.0 0.00 0.34 0.00 93 1010.4
20260904071325 54 121 0.0 0.0 0.00 0.34 0.00 93 1010.4
20260904070814 54 121 0.0 0.0 0.00 0.34 0.00 93 1010.4
20260904070313 54 121 0.0 0.0 0.00 0.34 0.34 93 1010.3
20260904065815 54 121 0.0 0.0 0.00 0.34 0.34 93 1010.3
20260904065322 54 121 0.0 0.0 0.00 0.34 0.34 93 1010.3
20260904064824 54 133 0.0 0.0 0.00 0.34 0.34 93 1010.4
20260904064332 54 124 0.0 0.0 0.00 0.34 0.34 93 1010.3
20260904063817 54 96 0.0 0.0 0.00 0.34 0.34 93 1010.3
20260904063316 54 96 0.0 0.0 0.00 0.34 0.34 93 1010.3
20260904062312 54 96 0.0 0.0 0.00 0.34 0.34 93 1010.3
20260904061816 54 96 0.0 0.0 0.00 0.34 0.34 93 1010.3
20260904061315 54 96 0.0 0.0 0.00 0.34 0.34 93 1010.3
20260904060908 54 96 0.0 0.0 0.00 0.34 0.34 93 1010.2
20260904060322 54 96 0.0 0.0 0.00 0.34 0.34 93 1010.2
20260904055824 54 96 0.0 0.0 0.00 0.34 0.34 93 1010.2
20260904055331 54 96 0.0 0.0 0.00 0.34 0.34 92 1010.2
20260904054824 54 96 0.0 0.0 0.00 0.34 0.34 92 1010.3
20260904054324 54 96 0.0 0.0 0.00 0.34 0.34 92 1010.3
20260904053835 54 96 0.0 0.0 0.00 0.34 0.34 92 1010.3
20260904053312 54 96 0.0 0.0 0.00 0.34 0.34 92 1010.3
20260904052815 54 96 0.0 0.0 0.00 0.34 0.34 91 1010.3
20260904052320 54 96 0.0 0.0 0.00 0.34 0.34 91 1010.4
20260904051823 54 96 0.0 0.0 0.00 0.34 0.34 91 1010.4
20260904051406 55 96 0.0 0.0 0.00 0.34 0.34 91 1010.4
20260904050830 55 96 0.0 0.0 0.00 0.34 0.34 91 1010.5
20260904045821 55 127 0.0 2.0 0.00 0.34 0.34 90 1010.5
20260904045321 55 98 0.0 1.0 0.00 0.34 0.34 90 1010.5
20260904044830 55 120 0.0 3.0 0.00 0.34 0.34 90 1010.5
20260904044330 55 98 0.0 3.0 0.00 0.34 0.34 90 1010.5
20260904043839 55 127 0.0 1.0 0.00 0.34 0.34 90 1010.6
20260904043319 55 167 0.0 3.0 0.00 0.34 0.34 91 1010.5
20260904042824 55 57 0.0 2.0 0.00 0.34 0.34 91 1010.5
20260904042327 55 142 0.0 2.0 0.00 0.34 0.34 92 1010.6
20260904041830 55 100 0.0 5.0 0.00 0.34 0.34 92 1010.5
20260904041329 55 131 1.0 5.0 0.00 0.34 0.34 93 1010.6
20260904040820 55 83 0.0 0.0 0.00 0.34 0.34 93 1010.6
20260904040316 55 83 0.0 0.0 0.00 0.34 0.34 93 1010.6
20260904035819 55 83 0.0 0.0 0.00 0.34 0.34 93 1010.5
20260904035325 55 83 0.0 0.0 0.00 0.34 0.34 93 1010.5
20260904034828 55 83 0.0 0.0 0.00 0.34 0.34 93 1010.5
20260904034334 55 131 0.0 0.0 0.00 0.34 0.34 93 1010.5
20260904033816 55 124 0.0 0.0 0.00 0.34 0.34 93 1010.4
20260904033313 55 101 0.0 0.0 0.00 0.34 0.34 93 1010.3
20260904032823 55 101 0.0 0.0 0.00 0.34 0.34 93 1010.3
20260904032321 54 101 0.0 0.0 0.00 0.34 0.34 93 1010.2
20260904031824 54 101 0.0 0.0 0.00 0.34 0.34 92 1010.1
20260904031330 55 101 0.0 0.0 0.00 0.34 0.34 92 1010.1
20260904030813 55 101 0.0 0.0 0.00 0.34 0.34 92 1010.1
20260904030312 55 101 0.0 0.0 0.00 0.34 0.34 92 1010.0
20260904025822 55 101 0.0 0.0 0.00 0.34 0.34 92 1010.0
20260904025321 55 101 0.0 0.0 0.00 0.34 0.34 92 1009.9
20260904024823 55 87 0.0 0.0 0.00 0.34 0.34 92 1009.9
20260904024330 55 89 0.0 0.0 0.00 0.34 0.34 92 1009.9
20260904023832 55 89 0.0 0.0 0.00 0.34 0.34 92 1009.8
20260904023311 55 86 0.0 0.0 0.00 0.34 0.34 92 1009.9
20260904022820 56 100 0.0 0.0 0.00 0.34 0.34 91 1009.8
20260904022319 56 131 0.0 0.0 0.00 0.34 0.34 91 1009.8
20260904021828 56 139 0.0 0.0 0.00 0.34 0.34 91 1009.8
20260904021327 56 139 0.0 0.0 0.00 0.34 0.34 90 1009.8
20260904020830 56 139 0.0 0.0 0.00 0.34 0.34 90 1009.8
20260904020335 56 139 0.0 0.0 0.00 0.36 0.34 90 1009.8
20260904015825 57 136 0.0 0.0 0.00 0.36 0.34 90 1009.8
20260904015321 57 135 0.0 0.0 0.00 0.36 0.34 89 1009.8
20260904014830 57 136 0.0 1.0 0.00 0.36 0.34 89 1009.9
20260904014329 57 149 0.0 0.0 0.00 0.36 0.34 89 1009.9
20260904013839 57 150 0.0 1.0 0.00 0.36 0.34 89 1009.9
20260904013317 57 130 0.0 5.0 0.00 0.36 0.34 88 1009.9
20260904012819 57 111 1.0 5.0 0.00 0.36 0.34 88 1009.9
20260904012318 57 120 0.0 3.0 0.00 0.36 0.34 88 1010.0
20260904011834 57 198 1.0 3.0 0.00 0.36 0.34 88 1009.9
20260904011314 57 166 0.0 8.0 0.00 0.36 0.34 87 1009.9
20260904010816 57 84 0.0 9.0 0.00 0.36 0.34 86 1009.9
20260904010321 57 146 1.0 9.0 0.00 0.37 0.34 85 1009.9
20260904005824 57 195 2.0 8.0 0.00 0.37 0.34 86 1009.9
20260904005330 56 158 0.0 0.0 0.00 0.37 0.34 89 1009.9
20260904004812 56 134 0.0 0.0 0.00 0.37 0.34 89 1009.9
20260904004311 56 132 0.0 0.0 0.00 0.37 0.34 90 1009.9
20260904003814 56 97 0.0 0.0 0.00 0.37 0.34 90 1009.8
20260904003320 55 96 0.0 1.0 0.00 0.37 0.34 88 1009.9
20260904002823 56 100 0.0 1.0 0.00 0.37 0.34 88 1009.9
20260904002329 56 108 0.0 0.0 0.00 0.37 0.34 88 1010.0
20260904001832 56 120 0.0 0.0 0.00 0.37 0.34 87 1010.0
20260904001311 56 73 0.0 1.0 0.00 0.37 0.34 86 1010.0
20260904000821 56 78 0.0 1.0 0.00 0.37 0.34 87 1010.0
20260904000320 57 64 0.0 1.0 0.00 0.40 0.34 89 1010.1
20260903235822 56 74 0.0 0.0 0.00 0.40 0.34 90 1010.2
20260903235329 56 105 0.0 0.0 0.00 0.40 0.34 90 1010.1
20260903234831 56 90 0.0 1.0 0.01 0.40 0.34 91 1010.0
20260903234318 55 133 0.0 1.0 0.01 0.40 0.34 91 1010.1
20260903233828 55 120 0.0 0.0 0.01 0.40 0.34 91 1010.0
20260903233327 55 109 0.0 0.0 0.01 0.40 0.34 92 1010.0
20260903232836 55 108 0.0 0.0 0.01 0.40 0.34 91 1010.0
20260903232315 55 113 0.0 0.0 0.01 0.40 0.34 91 1010.1
20260903231826 55 133 0.0 0.0 0.02 0.40 0.34 91 1010.0
20260903231324 55 113 0.0 0.0 0.02 0.40 0.34 91 1010.1
20260903230817 55 113 0.0 0.0 0.02 0.40 0.34 90 1010.2
20260903230316 55 300 0.0 0.0 0.02 0.48 0.34 91 1010.3
20260903225818 55 65 0.0 5.0 0.02 0.48 0.34 91 1010.4
20260903225325 55 308 1.0 5.0 0.02 0.48 0.34 89 1010.5
20260903224827 55 329 0.0 6.0 0.01 0.47 0.33 89 1010.4
20260903224313 55 293 0.0 2.0 0.02 0.47 0.33 89 1010.5
20260903223838 55 314 0.0 2.0 0.05 0.47 0.33 88 1010.7
20260903223315 56 23 0.0 1.0 0.06 0.47 0.33 89 1010.6
20260903222824 56 334 0.0 0.0 0.06 0.47 0.33 88 1010.5
20260903222329 56 200 0.0 1.0 0.06 0.47 0.33 89 1010.5
20260903221839 56 237 0.0 2.0 0.05 0.46 0.32 87 1010.5
20260903221315 56 28 0.0 2.0 0.05 0.46 0.32 88 1010.4
20260903220823 57 338 0.0 0.0 0.05 0.46 0.32 88 1010.5
20260903220322 57 338 0.0 0.0 0.05 0.47 0.32 90 1010.4